Location: Unspecified
(38.9119°N, 0.0000°E)
Time: 02:20:28
(UTC+00:00)

Envisat - Visible Passes

Search period start: 23 October 2019 00:00
Search period end: 02 November 2019 00:00
Orbit: 764 x 766 km, 98.1° (Epoch: 22 October)

Date Brightness Start Highest point End Pass type
(mag) Time Alt. Az. Time Alt. Az. Time Alt. Az.
23 Oct 5.1 18:58:28 10° SSW 19:02:48 28° W 19:07:09 10° NW visible
24 Oct 6.6 05:31:36 10° ENE 05:33:13 11° E 05:34:51 10° ESE visible
24 Oct 3.4 18:20:52 10° S 18:25:53 65° W 18:30:57 10° NNW visible
25 Oct 3.1 17:44:14 10° SSE 17:49:10 56° ENE 17:54:09 10° N visible
25 Oct 5.9 19:25:30 10° SW 19:28:31 16° W 19:31:33 10° NW visible
26 Oct 4.6 18:46:50 10° SSW 18:51:28 36° W 18:56:08 10° NNW visible
27 Oct 3.1 18:09:32 10° S 18:14:37 83° WSW 18:19:43 10° NNW visible
28 Oct 3.3 17:33:10 10° SE 17:37:57 44° ENE 17:42:45 10° N visible
28 Oct 5.6 19:13:27 10° SW 19:17:08 20° W 19:20:52 10° NW visible
29 Oct 6.1 05:44:26 10° NE 05:47:38 17° E 05:50:48 10° SE visible
29 Oct 4.1 18:35:18 10° S 18:40:09 46° W 18:45:02 10° NNW visible
30 Oct 2.9 17:58:17 10° SSE 18:03:21 78° ENE 18:08:27 10° N visible
30 Oct 6.2 19:41:44 10° WSW 19:42:55 11° W 19:44:06 10° WNW visible
31 Oct 3.6 17:22:12 10° SE 17:26:45 35° ENE 17:31:19 10° N visible
31 Oct 5.2 19:01:37 10° SSW 19:05:48 26° W 19:10:00 10° NW visible
01 Nov 6.4 05:34:01 10° ENE 05:36:14 13° E 05:38:27 10° ESE visible
01 Nov 3.6 18:23:52 10° S 18:28:52 59° W 18:33:53 10° NNW visible
